User: anonymous   Login
Location: *
(17.3280°S, 114.7300°W)
Time: 05:01:50
(UTC+00:00)
Language:

Meteor 1-21 Rocket - Orbit

View from above orbital plane
View from above orbital plane
View from above satellite
View from above satellite

Ground track
Ground track

The orbit data is extracted from the following two-line orbital elements,

1  7715U 75023B   20304.17936857 -.00000023 +00000-0 -20726-4 0  9990
2  7715 081.2184 115.4261 0049938 269.0663 090.4784 14.06791067338491
Epoch (UTC): 30 October 2020 04:18:17
Eccentricity: 0.0049938
inclination: 81.2184°
perigee height: 834 km
apogee height: 906 km
right ascension of ascending node: 115.4261°
argument of perigee: 269.0663°
revolutions per day: 14.06791067
mean anomaly at epoch: 90.4784°
orbit number at epoch: 33849

The dashed part of the orbit path shows where the satellite is in the earth's shadow,  

DLR